This is the latest recevied weather packets stored in our database for station/object N0KWA. If no packets are shown the sender has not sent any weather packets the latest 10 day(s).
| Time | Temp. | Humidity | Pressure | Rain* | Wind** | Luminosity | Snow |
|---|---|---|---|---|---|---|---|
| 1778075333 | 23.33° C | 99% | 1014.9 hPa | 0 mm | - | 10 W/m² | - |
| 1778075029 | 23.33° C | 99% | 1015 hPa | 0 mm | - | 10 W/m² | - |
| 1778074726 | 23.33° C | 99% | 1015 hPa | 0 mm | - | 5 W/m² | - |
| 1778074423 | 23.33° C | 99% | 1015.1 hPa | 0 mm | - | 7 W/m² | - |
| 1778074119 | 23.33° C | 99% | 1014.9 hPa | 0 mm | - | 9 W/m² | - |
| 1778073817 | 23.33° C | 99% | 1015 hPa | 0 mm | - | 15 W/m² | - |
| 1778073515 | 22.78° C | 99% | 1014.9 hPa | 0 mm | - | 7 W/m² | - |
| 1778073211 | 22.78° C | 99% | 1014.9 hPa | 0 mm | - | 0 W/m² | - |
| 1778072908 | 22.78° C | 99% | 1014.8 hPa | 0 mm | - | 4 W/m² | - |
| 1778072604 | 22.78° C | 99% | 1014.9 hPa | 0 mm | - | 11 W/m² | - |
| 1778072302 | 22.78° C | 99% | 1014.9 hPa | 0 mm | - | 10 W/m² | - |
| 1778072000 | 22.22° C | 99% | 1015 hPa | 0 mm | - | 7 W/m² | - |
| 1778071699 | 22.22° C | 99% | 1014.8 hPa | 0 mm | - | 6 W/m² | - |
| 1778071395 | 22.22° C | 99% | 1014.8 hPa | 0 mm | - | 3 W/m² | - |
| 1778071093 | 22.22° C | 99% | 1014.9 hPa | 0 mm | - | 5 W/m² | - |
| 1778070791 | 22.22° C | 99% | 1014.8 hPa | 0 mm | - | 2 W/m² | - |
| 1778070488 | 21.67° C | 99% | 1014.6 hPa | 0 mm | - | 1 W/m² | - |
| 1778070185 | 21.67° C | 99% | 1014.8 hPa | 0 mm | - | 1 W/m² | - |
| 1778069883 | 21.67° C | 99% | 1014.7 hPa | 0 mm | - | 0 W/m² | - |
| 1778069580 | 21.67° C | 99% | 1014.7 hPa | 0 mm | - | 0 W/m² | - |
| 1778069277 | 21.67° C | 99% | 1014.6 hPa | 0 mm | - | 0 W/m² | - |
| 1778068975 | 21.67° C | 99% | 1014.6 hPa | 0 mm | - | 0 W/m² | - |
| 1778068672 | 21.67° C | 99% | 1014.5 hPa | 0 mm | - | 0 W/m² | - |
| 1778068370 | 21.67° C | 99% | 1014.6 hPa | 0 mm | - | 0 W/m² | - |
| 1778068068 | 21.67° C | 99% | 1014.4 hPa | 0 mm | - | 0 W/m² | - |
* Rain latest hour (hover to see other rain measurements)
** Current wind speed in m/s (hover to see current wind gust speed)